Regional Weather Roundup
Issued by NWS

Home | Current Version | Previous Version | Graphics & Text | Print | Product List | Glossary On
Versions: 1 2 3 4 5 6 7 8 9 10 11 12 13 14 15 16 17 18 19 20 21 22 23 24 25 26 27 28 29 30 31 32 33 34 35 36 37 38 39 40 41 42 43 44 45 46 47 48 49 50
000
ASUS43 KIND 241709
RWRIN

WEATHER ROUNDUP FOR INDIANA
NATIONAL WEATHER SERVICE INDIANAPOLIS IN
1200 PM EST FRI NOV 24 2017

NOTE: "FAIR" INDICATES FEW OR NO CLOUDS BELOW 12,000 FEET WITH NO
SIGNIFICANT WEATHER AND/OR OBSTRUCTIONS TO VISIBILITY.

* - STATION DOES NOT REPORT WEATHER SUCH AS PRECIPITATION OR FOG.

+ - STATION NOT QUALITY CONTROLLED BY THE NATIONAL WEATHER SERVICE.
    USE DATA WITH CAUTION...ESPECIALLY DEWPOINT AND RELATIVE
    HUMIDITY OBSERVATIONS.

INZ001>003-010>013-019-020-241800-
NORTHWEST INDIANA

CITY           SKY/WX    TMP DP  RH WIND       PRES   REMARKS
GARY /AIRPORT/ SUNNY     54  28  37 S10G26    29.71F
KNOX *+        SUNNY     50  32  50 S13       29.76F
LA PORTE +     SUNNY     47  32  55 S10G18    29.74F
MICHIGAN CITY+ SUNNY     50  32  50 S17       29.72F
MONTICELLO +   SUNNY     49  30  48 S10       29.79F
RENSSELAER +   SUNNY     50  27  40 S14G22    29.76F
VALPARAISO     SUNNY     51  33  50 S12       29.74F

$$

LMZ046-743>745-241800-
SOUTHERN LAKE MICHIGAN

STATION/POSITION TIME  TEMP    WIND        PRES    WAVE
                       AIR SEA DIR/SP/G            HT
                 (UTC) (F)     (DEG/KT/KT) (MB)    (FT)
BURNS HARBOR     1640   49     190/ 16/ 29 1006.8F
MICHIGAN CITY    1640   48     180/ 14/ 21   N/A

$$

INZ004-005-014>016-021>024-241800-
NORTH CENTRAL INDIANA

CITY           SKY/WX    TMP DP  RH WIND       PRES   REMARKS
ELKHART        SUNNY     48  30  49 S12G18    29.75F
GOSHEN         SUNNY     48  29  47 S17       29.77F
LOGANSPORT +   SUNNY     48  34  57 S13       29.81F
PERU/GRISSOM   SUNNY     49  32  52 SW17      29.80F
ROCHESTER +    SUNNY     50  32  50 SW9G18    29.80F
SOUTH BEND     SUNNY     49  32  52 S17       29.75F
WARSAW +       SUNNY     46  30  53 S9        29.79F

$$

INZ006>009-017-018-025>027-241800-
NORTHEAST INDIANA

CITY           SKY/WX    TMP DP  RH WIND       PRES   REMARKS
AUBURN +       SUNNY     46  30  53 SW9G17    29.81F
FORT WAYNE     MOSUNNY   50  32  50 S15G26    29.81F
HUNTINGTON +   SUNNY     49  29  45 SW12G17   29.81F
KENDALLVILLE + SUNNY     47  31  52 SW16      29.78F

$$

INZ028-029-035-036-043>045-051>053-241800-
WEST CENTRAL INDIANA

CITY           SKY/WX    TMP DP  RH WIND       PRES   REMARKS
CRAWFORDSVL +  SUNNY     45  32  61 S12       29.83F
GREENCASTLE +  SUNNY     52  28  40 S9        29.85F
LAFAYETTE      SUNNY     49  32  52 S13       29.80F
TERRE HAUTE    MOSUNNY   49  31  49 S12       29.86F

$$

INZ030>032-037>040-046>048-054>057-064-065-241800-
CENTRAL INDIANA

CITY           SKY/WX    TMP DP  RH WIND       PRES   REMARKS
CP ATTERBURY + SUNNY     54  28  37 SW13      29.88F
COLUMBUS       SUNNY     46  23  39 S14       29.91F
FRANKFORT +    PTSUNNY   52  34  50 SW12G20   29.83F
GREENWOOD *+   SUNNY     55  31  41 S9        29.86F
INDIANAPOLIS   PTSUNNY   52  30  43 S16       29.85F
-EAGLE CREEK   SUNNY     49  28  44 S10       29.83F
KOKOMO +       SUNNY     50  32  50 S14       29.82F
MARION +       SUNNY     47  32  55 SW15G22   29.83F
MT COMFORT *+  SUNNY     48  34  57 S10       29.85F
SHELBYVILLE    SUNNY     50  28  42 S14       29.87F
ZIONSVILLE +   SUNNY     48  31  51 S12       29.83F

$$

INZ033-034-041-042-049-050-058-059-241800-
EAST CENTRAL INDIANA

CITY           SKY/WX    TMP DP  RH WIND       PRES   REMARKS
MUNCIE         SUNNY     51  28  41 SW13      29.83F
RICHMOND +     SUNNY     48  30  49 S15       29.88F

$$

INZ060-061-067>069-081>083-085>088-241800-
SOUTHWEST INDIANA

CITY           SKY/WX    TMP DP  RH WIND       PRES   REMARKS
EVANSVILLE     MOSUNNY   51  31  46 S10       29.92F
HUNTINGBURG +  MOSUNNY   50  31  48 S12       29.93F
WASHINGTON +   MOSUNNY   49  30  48 S9        29.90F

$$

INZ062-063-066-070>080-084-089>092-241800-
SOUTH CENTRAL AND SOUTHEAST INDIANA

CITY           SKY/WX    TMP DP  RH WIND       PRES   REMARKS
BEDFORD +      SUNNY     52  27  37 S10       29.90F
BLOOMINGTON    SUNNY     52  29  41 S17       29.87F
MADISON *+     SUNNY     50  27  40 S10       29.95F
NORTH VERNON + MOSUNNY   46  27  46 S8        29.92F
SEYMOUR +      PTSUNNY   54  30  40 S13       29.91F

$$




USA.gov is the U.S. government's official web portal to all federal, state and local government web resources and services.